Date_and_time,latitude,longitude,wind_speed,RelWindDirFrom,WindDirFrom,air_pressure,air_temperature,relative_humidity,Temp,platform_speed_wrt_ground,air_pressure_at_mean_sea_level,platform_orientation
2018-06-24 00:00,50.9117316666667,-96.9825633333333,12.8,16.2,49,982.08,20.5,92,22.05,0.0,1007.71,289.9
2018-06-24 00:10,50.9117366666667,-96.9824933333333,11.3,14.7,46,982.19,20.6,92,22.02,0.0,1007.85,289.9
2018-06-24 00:20,50.911735,-96.9825033333333,8.5,13.3,37,982.30,20.4,91,22.00,0.0,1008.00,289.9
2018-06-24 00:30,50.9117283333333,-96.9825383333333,9.4,14.2,41,982.36,20.4,92,21.97,0.0,1008.07,289.9
2018-06-24 00:40,50.9117333333333,-96.98252,11.7,15.3,41,982.35,20.6,90,21.95,0.0,1008.06,289.9
2018-06-24 00:50,50.9117316666667,-96.98252,10.9,14.4,40,982.45,20.6,88,21.93,0.0,1008.17,289.9
2018-06-24 01:00,50.91173,-96.9825216666667,10.7,14.3,45,982.61,20.7,90,21.92,0.0,1008.33,12.9
2018-06-24 01:10,50.9117216666667,-96.982525,10.0,11.9,49,982.71,20.6,92,21.90,0.0,1008.44,12.9
2018-06-24 01:20,50.9117233333333,-96.982525,8.9,11.6,54,982.73,20.6,94,21.89,0.0,1008.48,12.9
2018-06-24 01:30,50.9117266666667,-96.9825266666667,8.7,11.0,64,982.84,20.7,94,21.88,0.0,1008.58,12.9
2018-06-24 01:40,50.9117266666667,-96.9825266666667,9.4,13.7,65,982.95,20.7,94,21.87,0.0,1008.70,12.9
2018-06-24 01:50,50.9117066666667,-96.98252,9.4,13.3,66,983.14,20.7,95,21.87,0.0,1008.90,12.9
2018-06-24 02:00,50.9117383333333,-96.9825216666667,9.8,13.1,60,983.28,20.7,95,21.86,0.0,1009.04,360.0
2018-06-24 02:10,50.9117383333333,-96.982525,11.4,15.1,52,983.41,20.6,94,21.85,0.0,1009.19,360.0
2018-06-24 02:20,50.9117166666667,-96.9825266666667,13.4,16.4,50,983.47,20.7,97,21.84,0.0,1009.25,360.0
2018-06-24 02:30,50.9117316666667,-96.9825383333333,12.2,15.4,54,983.60,20.6,99,21.83,0.0,1009.37,360.0
2018-06-24 02:40,50.9117233333333,-96.982535,11.6,15.3,65,983.69,20.6,99,21.82,0.0,1009.46,360.0
2018-06-24 02:50,50.9117233333333,-96.982535,12.8,17.7,72,983.70,20.5,99,21.81,0.0,1009.48,360.0
2018-06-24 03:00,50.911725,-96.982535,15.3,20.0,74,983.84,20.6,96,21.80,0.0,1009.63,103.9
2018-06-24 03:10,50.911725,-96.9825366666667,14.1,19.1,72,984.04,20.5,96,21.78,0.0,1009.83,103.9
2018-06-24 03:20,50.9117266666667,-96.982535,12.8,18.6,72,984.22,20.4,98,21.76,0.0,1010.01,103.9
2018-06-24 03:30,50.9117316666667,-96.982525,13.6,19.2,73,984.38,20.3,98,21.74,0.0,1010.19,103.9
2018-06-24 03:40,50.9117333333333,-96.9825316666667,14.4,18.4,75,984.50,20.2,98,21.72,0.0,1010.31,103.9
2018-06-24 03:50,50.9117166666667,-96.982535,15.1,18.7,78,984.62,20.2,99,21.70,0.0,1010.44,103.9
2018-06-24 04:00,50.9117283333333,-96.9825366666667,16.6,20.2,80,984.70,20.1,99,21.68,0.0,1010.53,270.0
2018-06-24 04:10,50.91173,-96.98253,17.5,20.6,80,984.81,20.0,99,21.66,0.0,1010.64,270.0
2018-06-24 04:20,50.9117366666667,-96.982475,17.4,20.2,81,984.84,20.0,98,21.64,0.0,1010.67,270.0
2018-06-24 04:30,50.91174,-96.9825283333333,16.7,20.2,79,984.90,19.9,98,21.62,0.0,1010.74,270.0
2018-06-24 04:40,50.9117283333333,-96.9825516666667,16.8,20.3,81,984.93,19.9,99,21.60,0.0,1010.78,270.0
2018-06-24 04:50,50.9117283333333,-96.9825283333333,16.8,19.6,80,984.98,19.8,99,21.59,0.0,1010.83,270.0
2018-06-24 05:00,50.9117316666667,-96.9825266666667,16.9,20.4,79,985.05,19.7,99,21.56,0.0,1010.90,360.0
2018-06-24 05:10,50.91173,-96.982525,18.3,22.4,81,985.13,19.7,96,21.54,0.0,1011.00,360.0
2018-06-24 05:20,50.9117283333333,-96.982525,18.3,21.3,80,985.21,19.6,95,21.52,0.0,1011.08,360.0
2018-06-24 05:30,50.91173,-96.9825283333333,18.5,22.8,79,985.19,19.7,94,21.50,0.0,1011.07,360.0
2018-06-24 05:40,50.91173,-96.98253,18.4,23.6,80,985.25,19.7,93,21.47,0.0,1011.14,360.0
2018-06-24 05:50,50.9117316666667,-96.98253,17.7,21.8,81,985.33,19.7,94,21.45,0.0,1011.21,360.0
2018-06-24 06:00,50.9117333333333,-96.98253,17.8,23.0,79,985.35,19.6,92,21.43,0.0,1011.24,47.9
2018-06-24 06:10,50.9117316666667,-96.9825283333333,16.9,23.8,77,985.37,19.5,93,21.41,0.0,1011.27,47.9
2018-06-24 06:20,50.9117316666667,-96.98253,16.7,20.3,78,985.43,19.5,93,21.39,0.0,1011.33,47.9
2018-06-24 06:30,50.9117316666667,-96.98253,16.3,20.0,79,985.50,19.5,93,21.37,0.0,1011.40,47.9
2018-06-24 06:40,50.91173,-96.98253,14.8,18.9,76,985.54,19.4,92,21.36,0.0,1011.46,47.9
2018-06-24 06:50,50.91173,-96.9825283333333,17.1,20.5,81,985.58,19.3,92,21.34,0.0,1011.50,47.9
2018-06-24 07:00,50.91173,-96.9825283333333,17.0,19.5,84,985.60,19.2,91,21.32,0.0,1011.53,90.0
2018-06-24 07:10,50.9117266666667,-96.9825083333333,17.0,20.0,83,985.59,19.1,91,21.30,0.0,1011.52,90.0
2018-06-24 07:20,50.9117233333333,-96.982525,16.2,19.4,80,985.75,19.0,91,21.28,0.0,1011.70,90.0
2018-06-24 07:30,50.9117266666667,-96.9825266666667,18.6,21.3,84,985.85,18.9,88,21.26,0.0,1011.80,90.0
2018-06-24 07:40,50.9117233333333,-96.9825266666667,18.5,23.9,84,985.94,18.9,88,21.24,0.0,1011.90,90.0
2018-06-24 07:50,50.9117216666667,-96.9825266666667,19.2,22.1,85,986.03,18.9,86,21.21,0.0,1011.99,90.0
2018-06-24 08:00,50.9117233333333,-96.98253,17.7,20.4,87,986.18,18.8,87,21.18,0.0,1012.15,142.5
2018-06-24 08:10,50.911725,-96.9825266666667,16.2,19.6,93,986.33,18.7,87,21.16,0.0,1012.31,142.5
2018-06-24 08:20,50.9117266666667,-96.98253,17.2,20.0,89,986.35,18.6,86,21.15,0.0,1012.34,142.5
2018-06-24 08:30,50.9117266666667,-96.9825283333333,16.0,18.8,91,986.32,18.5,88,21.14,0.0,1012.31,142.5
2018-06-24 08:40,50.911725,-96.9825266666667,15.6,17.7,92,986.43,18.4,88,21.12,0.0,1012.43,142.5
2018-06-24 08:50,50.911725,-96.9825266666667,15.3,18.0,96,986.46,18.3,86,21.12,0.0,1012.48,142.5
2018-06-24 09:00,50.911725,-96.9825266666667,15.7,18.0,90,986.43,18.2,87,21.10,0.0,1012.46,142.5
2018-06-24 09:10,50.911725,-96.982525,13.5,16.9,78,986.52,18.2,90,21.08,0.0,1012.56,142.5
2018-06-24 09:20,50.911725,-96.982525,15.6,17.9,80,986.58,18.0,89,21.06,0.0,1012.62,142.5
2018-06-24 09:30,50.911725,-96.982525,15.9,18.6,83,986.61,17.9,90,21.04,0.0,1012.66,142.5
2018-06-24 09:40,50.911725,-96.982525,16.1,19.2,93,986.64,17.7,90,21.02,0.0,1012.71,142.5
2018-06-24 09:50,50.911725,-96.982525,16.3,18.7,91,986.78,17.5,90,21.00,0.0,1012.86,142.5
2018-06-24 10:00,50.911725,-96.982525,14.8,18.4,93,986.87,17.4,91,20.98,0.0,1012.96,142.5
2018-06-24 10:10,50.9117233333333,-96.982525,15.3,17.9,91,986.96,17.3,92,20.96,0.0,1013.06,142.5
2018-06-24 10:20,50.91172,-96.98252,14.7,18.4,88,987.14,17.4,92,20.94,0.0,1013.25,142.5
2018-06-24 10:30,50.911745,-96.982525,13.9,18.7,101,987.14,17.3,93,20.91,0.0,1013.25,142.5
2018-06-24 10:40,50.9117233333333,-96.9825316666667,12.0,16.5,104,987.30,17.2,93,20.89,0.0,1013.43,142.5
2018-06-24 10:50,50.9117233333333,-96.9825266666667,13.9,17.9,104,987.43,17.2,94,20.87,0.0,1013.57,142.5
2018-06-24 11:00,50.911725,-96.9825266666667,14.6,18.2,100,987.57,17.2,94,20.85,0.0,1013.71,0.0
2018-06-24 11:10,50.911725,-96.9825266666667,14.6,17.5,107,987.66,17.1,93,20.83,0.0,1013.82,0.0
2018-06-24 11:20,50.911725,-96.9825266666667,14.5,17.4,105,987.64,17.0,94,20.81,0.0,1013.81,0.0
2018-06-24 11:30,50.9117266666667,-96.9825266666667,14.0,16.4,98,987.74,16.9,95,20.78,0.0,1013.92,0.0
2018-06-24 11:40,50.9117266666667,-96.9825266666667,15.2,17.7,93,987.91,16.9,95,20.76,0.0,1014.11,0.0
2018-06-24 11:50,50.911725,-96.9825266666667,14.9,18.7,102,988.08,16.8,96,20.75,0.0,1014.29,0.0
2018-06-24 12:00,50.911725,-96.9825266666667,13.1,15.5,108,988.27,16.7,96,20.72,0.0,1014.49,0.0
2018-06-24 12:10,50.91171,-96.9825416666667,13.2,16.8,109,988.33,16.7,96,20.69,0.0,1014.55,0.0
2018-06-24 12:20,50.911735,-96.9825316666667,14.3,17.3,96,988.49,16.8,96,20.66,0.0,1014.71,0.0
2018-06-24 12:30,50.911735,-96.9825316666667,16.1,19.5,92,988.53,16.7,97,20.65,0.0,1014.76,0.0
2018-06-24 12:40,50.911735,-96.9825283333333,16.6,19.1,95,988.66,16.7,96,20.63,0.0,1014.90,0.0
2018-06-24 12:50,50.9117316666667,-96.9825283333333,16.2,19.2,100,988.80,16.6,96,20.62,0.0,1015.04,0.0
2018-06-24 13:00,50.91173,-96.982525,16.3,18.5,96,988.91,16.6,97,20.60,0.0,1015.16,37.5
2018-06-24 13:10,50.91173,-96.982525,15.5,18.5,100,989.02,16.6,97,20.59,0.0,1015.28,37.5
2018-06-24 13:20,50.911705,-96.9825266666667,14.5,17.5,100,989.11,16.7,98,20.55,0.0,1015.38,37.5
2018-06-24 13:30,50.91174,-96.98252,14.6,17.0,96,989.08,16.8,98,20.51,0.0,1015.35,37.5
2018-06-24 13:40,50.911725,-96.9825316666667,14.2,18.7,101,989.17,16.8,98,20.48,0.0,1015.43,37.5
2018-06-24 13:50,50.9117216666667,-96.9825233333333,13.7,16.3,101,989.45,16.8,97,20.44,0.0,1015.72,37.5
2018-06-24 14:00,50.9117216666667,-96.982525,14.0,16.2,95,989.52,16.8,97,20.41,0.0,1015.80,360.0
2018-06-24 14:10,50.9117216666667,-96.9825233333333,13.6,16.2,92,989.63,16.8,97,20.40,0.0,1015.91,360.0
2018-06-24 14:20,50.9117216666667,-96.982525,14.0,16.7,94,989.63,16.9,97,20.39,0.0,1015.91,360.0
2018-06-24 14:30,50.9117216666667,-96.982525,13.3,15.9,99,989.71,16.8,97,20.37,0.0,1016.00,360.0
2018-06-24 14:40,50.9117216666667,-96.982525,12.5,14.8,97,989.81,16.9,97,20.35,0.0,1016.09,360.0
2018-06-24 14:50,50.9117233333333,-96.9825266666667,13.3,16.8,96,989.83,16.9,97,20.33,0.0,1016.11,360.0
2018-06-24 15:00,50.9117233333333,-96.9825266666667,13.4,15.9,86,989.89,17.0,96,20.33,0.0,1016.18,0.0
2018-06-24 15:10,50.911725,-96.9825266666667,13.5,15.6,86,990.01,17.0,95,20.33,0.0,1016.29,0.0
2018-06-24 15:20,50.9117466666667,-96.9825283333333,13.4,15.9,88,990.00,17.0,95,20.32,0.0,1016.28,0.0
2018-06-24 15:30,50.91174,-96.9825216666667,13.5,16.0,86,990.02,17.1,94,20.32,0.0,1016.29,0.0
2018-06-24 15:40,50.9117383333333,-96.982525,13.6,15.7,87,990.05,17.2,94,20.32,0.0,1016.32,0.0
2018-06-24 15:50,50.911735,-96.982525,14.1,16.1,87,990.09,17.3,93,20.31,0.0,1016.36,0.0
2018-06-24 16:00,50.9117333333333,-96.9825266666667,13.6,16.3,83,990.20,17.4,92,20.30,0.0,1016.46,0.0
2018-06-24 16:10,50.9117333333333,-96.9825283333333,14.0,15.9,88,990.22,17.4,92,20.29,0.0,1016.48,0.0
2018-06-24 16:20,50.9117233333333,-96.98251,13.6,16.1,90,990.28,17.4,91,20.29,0.0,1016.55,0.0
2018-06-24 16:30,50.9117366666667,-96.9825416666667,13.5,15.9,88,990.25,17.4,92,20.28,0.0,1016.52,0.0
2018-06-24 16:40,50.9117266666667,-96.982535,13.5,16.3,85,990.29,17.5,92,20.27,0.0,1016.54,0.0
2018-06-24 16:50,50.911715,-96.982525,12.5,14.6,83,990.37,17.6,91,20.27,0.0,1016.62,0.0
2018-06-24 17:00,50.911725,-96.9825233333333,12.7,14.7,86,990.42,17.7,90,20.27,0.0,1016.66,9.8
2018-06-24 17:10,50.91173,-96.982535,12.4,14.8,90,990.63,17.7,90,20.27,0.0,1016.89,9.8
2018-06-24 17:20,50.9117283333333,-96.9825283333333,12.1,14.8,103,990.80,17.5,91,20.26,0.0,1017.06,9.8
2018-06-24 17:30,50.91173,-96.9825333333333,12.3,14.3,101,990.91,17.5,91,20.25,0.0,1017.17,9.8
2018-06-24 17:40,50.91173,-96.982535,12.6,15.2,102,991.08,17.6,90,20.25,0.0,1017.33,9.8
2018-06-24 17:50,50.9117166666667,-96.9825283333333,12.8,14.4,103,991.21,17.6,89,20.24,0.0,1017.47,9.8
2018-06-24 18:00,50.9117183333333,-96.9825266666667,11.7,15.2,105,991.17,17.8,88,20.23,0.0,1017.42,360.0
2018-06-24 18:10,50.91174,-96.9825233333333,11.4,14.0,103,991.14,18.0,88,20.23,0.0,1017.38,360.0
2018-06-24 18:20,50.911735,-96.98253,12.4,14.9,101,991.26,17.9,88,20.23,0.0,1017.50,360.0
2018-06-24 18:30,50.9117333333333,-96.9825316666667,13.0,14.6,98,991.30,17.9,87,20.22,0.0,1017.54,360.0
2018-06-24 18:40,50.9117333333333,-96.9825266666667,11.6,13.6,101,991.30,18.1,87,20.22,0.0,1017.53,360.0
2018-06-24 18:50,50.9116916666667,-96.9825333333333,11.9,14.2,90,991.20,18.5,84,20.23,0.0,1017.40,360.0
2018-06-24 19:00,50.9117316666667,-96.98252,12.0,13.9,92,991.25,18.7,84,20.25,0.0,1017.44,90.0
2018-06-24 19:10,50.911725,-96.9825266666667,12.1,13.8,92,991.25,18.8,83,20.26,0.0,1017.45,90.0
2018-06-24 19:20,50.9117266666667,-96.9825333333333,11.6,13.7,98,991.18,18.7,83,20.28,0.0,1017.38,90.0
2018-06-24 19:30,50.9117266666667,-96.98253,11.3,13.3,106,991.18,18.5,84,20.29,0.0,1017.38,90.0
2018-06-24 19:40,50.9117266666667,-96.9825333333333,10.2,14.3,114,991.20,18.3,85,20.30,0.0,1017.41,90.0
2018-06-24 19:50,50.9117283333333,-96.982535,10.3,13.6,113,991.17,18.5,82,20.30,0.0,1017.36,90.0
2018-06-24 20:00,50.9117283333333,-96.9825333333333,10.1,12.3,106,991.13,18.9,81,20.30,0.0,1017.29,305.8
2018-06-24 20:10,50.91171,-96.982525,10.6,13.1,104,991.14,19.0,81,20.32,0.0,1017.31,305.8
2018-06-24 20:20,50.9117283333333,-96.98253,10.7,13.4,106,991.14,18.9,81,20.33,0.0,1017.31,305.8
2018-06-24 20:30,50.9117283333333,-96.9825533333333,11.2,13.4,98,991.17,19.0,80,20.34,0.0,1017.32,305.8
2018-06-24 20:40,50.9117283333333,-96.9825233333333,10.2,12.0,99,991.21,19.1,80,20.35,0.0,1017.35,305.8
2018-06-24 20:50,50.91173,-96.982525,11.6,14.0,102,991.09,19.1,79,20.36,0.0,1017.22,305.8
2018-06-24 21:00,50.9117283333333,-96.9825266666667,12.0,14.2,98,990.98,19.2,79,20.36,0.0,1017.09,360.0
2018-06-24 21:10,50.9117283333333,-96.9825233333333,9.9,14.0,116,990.90,18.9,77,20.36,0.0,1017.03,360.0
2018-06-24 21:20,50.91173,-96.9825433333333,8.5,11.2,96,990.89,19.5,76,20.37,0.0,1017.00,360.0
2018-06-24 21:30,50.9117233333333,-96.98253,7.3,9.4,96,990.87,19.7,76,20.39,0.0,1016.98,360.0
2018-06-24 21:40,50.9117283333333,-96.98252,8.2,9.6,91,990.78,20.0,75,20.41,0.0,1016.87,360.0
2018-06-24 21:50,50.9117183333333,-96.9825333333333,8.3,9.4,89,990.70,20.2,75,20.44,0.0,1016.76,360.0
2018-06-24 22:00,50.9117183333333,-96.982535,7.5,9.1,91,990.73,20.3,74,20.47,0.0,1016.78,211.8
2018-06-24 22:10,50.9117166666667,-96.9825333333333,6.4,7.7,99,990.78,20.3,76,20.50,0.0,1016.83,211.8
2018-06-24 22:20,50.9117183333333,-96.982535,5.3,7.1,113,990.76,19.8,77,20.54,0.0,1016.82,211.8
2018-06-24 22:30,50.9117183333333,-96.982535,4.5,5.9,118,990.71,19.8,75,20.57,0.0,1016.78,211.8
2018-06-24 22:40,50.91173,-96.98256,3.7,5.1,102,990.69,20.4,74,20.59,0.0,1016.73,211.8
2018-06-24 22:50,50.911725,-96.9825433333333,3.7,5.4,105,990.63,20.6,73,20.62,0.0,1016.65,211.8
2018-06-24 23:00,50.9117083333333,-96.9825216666667,3.4,4.8,97,990.58,21.0,71,20.65,0.0,1016.60,167.1
2018-06-24 23:10,50.9117233333333,-96.982565,3.5,4.5,97,990.49,21.1,70,20.67,0.0,1016.48,167.1
2018-06-24 23:20,50.9117116666667,-96.9825333333333,3.1,4.6,90,990.35,21.2,70,20.69,0.0,1016.31,167.1
2018-06-24 23:30,50.9117116666667,-96.98253,2.7,4.1,87,990.29,21.8,67,20.71,0.0,1016.22,167.1
2018-06-24 23:40,50.9117133333333,-96.9825283333333,2.3,4.0,91,990.38,21.8,68,20.73,0.0,1016.30,167.1
